UAL3923 KEWR-KIAD

Flight info

Callsign UAL3923
Flight time 0h 42m
Altitude 34000
Route PARKE HYPER9
Aircraft B772/H-SDE2E3FGHIJ5LORVWXY/LB1D1

Departure

Time 2026-04-25 00:33
Airport Newark Liberty International Airport (KEWR)

Arrival

Time 2026-04-25 01:16
Airport Washington Dulles International Airport (KIAD)
Time Latitude Longitude Altitude Speed Heading
2026-04-25 00:13 40.69652 -74.17264 25 ft 0 kts 210°
2026-04-25 00:24 40.69654 -74.17265 25 ft 4 kts 214°
2026-04-25 00:24 40.69675 -74.17250 29 ft 4 kts 172°
2026-04-25 00:24 40.69693 -74.17267 31 ft 4 kts 134°
2026-04-25 00:25 40.69708 -74.17284 32 ft 4 kts 139°
2026-04-25 00:25 40.69721 -74.17308 32 ft 4 kts 79°
2026-04-25 00:25 40.69708 -74.17333 32 ft 4 kts 35°
2026-04-25 00:25 40.69686 -74.17353 31 ft 4 kts 40°
2026-04-25 00:26 40.69680 -74.17359 31 ft 0 kts 46°
2026-04-25 00:28 40.69686 -74.17351 31 ft 10 kts 46°
2026-04-25 00:29 40.69726 -74.17225 29 ft 16 kts 94°
2026-04-25 00:29 40.69645 -74.17135 30 ft 16 kts 155°
2026-04-25 00:29 40.69538 -74.17087 27 ft 16 kts 166°
2026-04-25 00:29 40.69426 -74.17070 25 ft 16 kts 180°
2026-04-25 00:30 40.69315 -74.17097 24 ft 16 kts 202°
2026-04-25 00:30 40.69213 -74.17160 27 ft 16 kts 206°
2026-04-25 00:30 40.69111 -74.17225 26 ft 16 kts 206°
2026-04-25 00:30 40.69009 -74.17290 28 ft 16 kts 206°
2026-04-25 00:31 40.68894 -74.17364 28 ft 23 kts 205°
2026-04-25 00:31 40.68751 -74.17455 29 ft 23 kts 206°
2026-04-25 00:31 40.68656 -74.17515 30 ft 23 kts 205°
2026-04-25 00:31 40.68467 -74.17634 30 ft 23 kts 206°
2026-04-25 00:32 40.68323 -74.17718 29 ft 22 kts 185°
2026-04-25 00:32 40.68226 -74.17651 28 ft 9 kts 124°
2026-04-25 00:32 40.68195 -74.17580 29 ft 9 kts 117°
2026-04-25 00:32 40.68193 -74.17533 28 ft 6 kts 63°
2026-04-25 00:33 40.68321 -74.17447 28 ft 40 kts 25°
2026-04-25 00:33 40.68609 -74.17263 29 ft 101 kts 25°
2026-04-25 00:33 40.69488 -74.16714 222 ft 162 kts 28°
2026-04-25 00:33 40.70519 -74.16037 1220 ft 170 kts 32°
2026-04-25 00:34 40.71736 -74.14760 2441 ft 173 kts 44°
2026-04-25 00:34 40.72688 -74.13610 2988 ft 203 kts 42°
2026-04-25 00:34 40.73845 -74.12226 3027 ft 242 kts 42°
2026-04-25 00:34 40.74680 -74.11220 3162 ft 248 kts 42°
2026-04-25 00:35 40.76120 -74.09909 3691 ft 259 kts 17°
2026-04-25 00:35 40.77884 -74.09817 4719 ft 254 kts 343°
2026-04-25 00:35 40.79391 -74.10952 5758 ft 251 kts 314°
2026-04-25 00:35 40.80352 -74.12855 6772 ft 251 kts 292°
2026-04-25 00:36 40.80661 -74.15846 8045 ft 252 kts 268°
2026-04-25 00:36 40.80381 -74.18166 8839 ft 259 kts 266°
2026-04-25 00:36 40.80168 -74.19750 9469 ft 259 kts 266°
2026-04-25 00:36 40.79846 -74.22092 10298 ft 263 kts 267°
2026-04-25 00:37 40.79517 -74.24538 10578 ft 287 kts 266°
2026-04-25 00:37 40.79158 -74.27213 11108 ft 303 kts 266°
2026-04-25 00:37 40.78781 -74.29986 11980 ft 311 kts 266°
2026-04-25 00:37 40.78399 -74.32830 12981 ft 320 kts 266°
2026-04-25 00:38 40.78009 -74.35755 14005 ft 327 kts 266°
2026-04-25 00:38 40.77610 -74.38742 14949 ft 334 kts 265°
2026-04-25 00:38 40.77205 -74.41776 15968 ft 338 kts 265°
2026-04-25 00:38 40.76795 -74.44859 16967 ft 344 kts 265°
2026-04-25 00:39 40.76381 -74.47968 18071 ft 343 kts 265°
2026-04-25 00:39 40.75976 -74.50988 19049 ft 337 kts 266°
2026-04-25 00:39 40.75571 -74.54017 19682 ft 333 kts 266°
2026-04-25 00:39 40.75171 -74.57016 19911 ft 334 kts 266°
2026-04-25 00:40 40.74769 -74.60039 19902 ft 334 kts 266°
2026-04-25 00:40 40.74366 -74.63054 19899 ft 333 kts 266°
2026-04-25 00:40 40.73965 -74.66050 19883 ft 331 kts 266°
2026-04-25 00:40 40.73564 -74.69045 19889 ft 332 kts 266°
2026-04-25 00:41 40.73162 -74.72042 19899 ft 333 kts 266°
2026-04-25 00:41 40.72763 -74.75014 19900 ft 334 kts 266°
2026-04-25 00:41 40.72357 -74.78025 19894 ft 334 kts 266°
2026-04-25 00:41 40.71950 -74.81037 19897 ft 334 kts 266°
2026-04-25 00:42 40.71613 -74.83526 19898 ft 334 kts 266°
2026-04-25 00:42 40.71204 -74.86538 19899 ft 334 kts 266°
2026-04-25 00:42 40.70794 -74.89556 19890 ft 334 kts 266°
2026-04-25 00:42 40.70383 -74.92566 19894 ft 334 kts 266°
2026-04-25 00:43 40.69973 -74.95574 19896 ft 333 kts 266°
2026-04-25 00:43 40.69563 -74.98578 19899 ft 333 kts 266°
2026-04-25 00:43 40.69152 -75.01585 19888 ft 333 kts 266°
2026-04-25 00:43 40.68745 -75.04548 19882 ft 333 kts 266°
2026-04-25 00:44 40.68334 -75.07548 19860 ft 332 kts 266°
2026-04-25 00:44 40.68024 -75.10548 19865 ft 330 kts 269°
2026-04-25 00:44 40.67803 -75.13557 19872 ft 330 kts 270°
2026-04-25 00:44 40.67596 -75.16564 19879 ft 330 kts 270°
2026-04-25 00:45 40.67383 -75.19582 19878 ft 331 kts 270°
2026-04-25 00:45 40.67161 -75.22606 19869 ft 332 kts 270°
2026-04-25 00:45 40.66930 -75.25638 19861 ft 333 kts 270°
2026-04-25 00:45 40.66699 -75.28626 19862 ft 333 kts 270°
2026-04-25 00:46 40.66464 -75.31645 19864 ft 333 kts 270°
2026-04-25 00:46 40.66225 -75.34678 19860 ft 333 kts 269°
2026-04-25 00:46 40.64962 -75.40526 19862 ft 341 kts 247°
2026-04-25 00:47 40.63765 -75.43239 19854 ft 344 kts 246°
2026-04-25 00:47 40.62555 -75.45979 19849 ft 347 kts 246°
2026-04-25 00:47 40.61342 -75.48739 19887 ft 350 kts 246°
2026-04-25 00:47 40.60124 -75.51522 19894 ft 352 kts 246°
2026-04-25 00:48 40.58905 -75.54324 19894 ft 354 kts 247°
2026-04-25 00:48 40.57682 -75.57138 19895 ft 355 kts 247°
2026-04-25 00:48 40.56476 -75.59919 19890 ft 355 kts 247°
2026-04-25 00:48 40.55254 -75.62738 19885 ft 354 kts 247°
2026-04-25 00:49 40.54038 -75.65543 19880 ft 353 kts 247°
2026-04-25 00:49 40.52826 -75.68337 19880 ft 351 kts 247°
2026-04-25 00:49 40.51616 -75.71126 19884 ft 350 kts 247°
2026-04-25 00:49 40.50411 -75.73901 19883 ft 349 kts 247°
2026-04-25 00:50 40.49208 -75.76672 19875 ft 349 kts 247°
2026-04-25 00:50 40.48022 -75.79399 19863 ft 348 kts 246°
2026-04-25 00:50 40.46821 -75.82162 19855 ft 348 kts 246°
2026-04-25 00:50 40.45617 -75.84925 19869 ft 349 kts 246°
2026-04-25 00:51 40.44410 -75.87688 19875 ft 350 kts 246°
2026-04-25 00:51 40.42972 -75.90291 19871 ft 357 kts 233°
2026-04-25 00:51 40.41185 -75.92582 19874 ft 361 kts 229°
2026-04-25 00:51 40.39340 -75.94835 19850 ft 363 kts 229°
2026-04-25 00:52 40.37486 -75.97100 19856 ft 365 kts 229°
2026-04-25 00:52 40.35662 -75.99350 19859 ft 366 kts 230°
2026-04-25 00:52 40.33818 -76.01650 19860 ft 366 kts 230°
2026-04-25 00:52 40.31976 -76.03961 19854 ft 367 kts 230°
2026-04-25 00:53 40.30140 -76.06274 19849 ft 366 kts 230°
2026-04-25 00:53 40.28309 -76.08584 19845 ft 365 kts 230°
2026-04-25 00:53 40.26485 -76.10887 19854 ft 364 kts 230°
2026-04-25 00:53 40.24660 -76.13190 19853 ft 364 kts 230°
2026-04-25 00:54 40.22841 -76.15486 19841 ft 363 kts 230°
2026-04-25 00:54 40.21026 -76.17774 19846 ft 363 kts 230°
2026-04-25 00:54 40.19208 -76.20064 19848 ft 363 kts 230°
2026-04-25 00:54 40.17387 -76.22356 19855 ft 363 kts 230°
2026-04-25 00:55 40.15590 -76.24616 19854 ft 364 kts 230°
2026-04-25 00:55 40.13764 -76.26910 19852 ft 364 kts 230°
2026-04-25 00:55 40.11960 -76.29227 19844 ft 359 kts 234°
2026-04-25 00:55 40.10520 -76.31817 19857 ft 351 kts 244°
2026-04-25 00:56 40.09307 -76.34590 19842 ft 352 kts 246°
2026-04-25 00:56 40.08122 -76.37394 19846 ft 354 kts 246°
2026-04-25 00:56 40.06890 -76.40186 19884 ft 357 kts 245°
2026-04-25 00:56 40.05634 -76.42940 19869 ft 358 kts 244°
2026-04-25 00:57 40.04344 -76.45729 19866 ft 359 kts 244°
2026-04-25 00:57 40.03051 -76.48517 19867 ft 359 kts 244°
2026-04-25 00:57 40.01759 -76.51302 19854 ft 359 kts 244°
2026-04-25 00:57 40.00468 -76.54084 19880 ft 358 kts 244°
2026-04-25 00:58 39.99179 -76.56866 19879 ft 357 kts 244°
2026-04-25 00:58 39.97900 -76.59620 19630 ft 355 kts 244°
2026-04-25 00:58 39.96619 -76.62376 19240 ft 354 kts 244°
2026-04-25 00:58 39.95347 -76.65107 18851 ft 352 kts 243°
2026-04-25 00:59 39.94083 -76.67820 18453 ft 349 kts 243°
2026-04-25 00:59 39.92824 -76.70522 18019 ft 348 kts 243°
2026-04-25 00:59 39.91572 -76.73206 17547 ft 346 kts 243°
2026-04-25 00:59 39.90327 -76.75869 17270 ft 339 kts 243°
2026-04-25 01:00 39.89128 -76.78428 16844 ft 336 kts 243°
2026-04-25 01:00 39.87916 -76.81021 16431 ft 334 kts 243°
2026-04-25 01:00 39.86715 -76.83591 16011 ft 332 kts 243°
2026-04-25 01:00 39.85522 -76.86145 15590 ft 329 kts 243°
2026-04-25 01:01 39.84331 -76.88688 15165 ft 328 kts 242°
2026-04-25 01:01 39.83149 -76.91208 14744 ft 326 kts 242°
2026-04-25 01:01 39.81972 -76.93719 14346 ft 324 kts 242°
2026-04-25 01:01 39.80800 -76.96216 13944 ft 323 kts 242°
2026-04-25 01:02 39.79634 -76.98698 13498 ft 321 kts 242°
2026-04-25 01:02 39.78488 -77.01131 13060 ft 319 kts 242°
2026-04-25 01:02 39.77334 -77.03580 12630 ft 316 kts 242°
2026-04-25 01:02 39.76189 -77.06007 12219 ft 313 kts 242°
2026-04-25 01:03 39.74923 -77.08283 11822 ft 313 kts 231°
2026-04-25 01:03 39.73362 -77.10241 11589 ft 310 kts 227°
2026-04-25 01:03 39.71803 -77.12143 11385 ft 306 kts 227°
2026-04-25 01:03 39.70263 -77.14037 11113 ft 304 kts 227°
2026-04-25 01:04 39.68737 -77.15929 10822 ft 303 kts 228°
2026-04-25 01:04 39.67218 -77.17821 10552 ft 302 kts 228°
2026-04-25 01:04 39.65732 -77.19678 10301 ft 300 kts 228°
2026-04-25 01:04 39.64232 -77.21556 10039 ft 299 kts 228°
2026-04-25 01:05 39.62745 -77.23420 9847 ft 294 kts 228°
2026-04-25 01:05 39.61296 -77.25234 9790 ft 285 kts 228°
2026-04-25 01:05 39.59904 -77.26975 9577 ft 276 kts 228°
2026-04-25 01:05 39.58532 -77.28695 9409 ft 272 kts 228°
2026-04-25 01:06 39.57183 -77.30387 9195 ft 270 kts 228°
2026-04-25 01:06 39.55838 -77.32072 9093 ft 266 kts 228°
2026-04-25 01:06 39.54512 -77.33733 9040 ft 267 kts 227°
2026-04-25 01:06 39.53169 -77.35416 9028 ft 270 kts 227°
2026-04-25 01:07 39.51812 -77.37114 9023 ft 271 kts 227°
2026-04-25 01:07 39.50476 -77.38783 9026 ft 270 kts 227°
2026-04-25 01:07 39.49124 -77.40469 9013 ft 270 kts 227°
2026-04-25 01:07 39.47773 -77.42153 9026 ft 269 kts 227°
2026-04-25 01:08 39.46423 -77.43832 9013 ft 267 kts 226°
2026-04-25 01:08 39.44834 -77.45083 8982 ft 278 kts 200°
2026-04-25 01:08 39.42877 -77.45339 8660 ft 286 kts 182°
2026-04-25 01:08 39.40879 -77.45317 8344 ft 288 kts 183°
2026-04-25 01:09 39.38883 -77.45333 8025 ft 286 kts 184°
2026-04-25 01:09 39.36896 -77.45355 7705 ft 284 kts 184°
2026-04-25 01:09 39.34925 -77.45381 7383 ft 283 kts 184°
2026-04-25 01:09 39.32988 -77.45408 7080 ft 281 kts 183°
2026-04-25 01:10 39.31032 -77.45436 6710 ft 282 kts 183°
2026-04-25 01:10 39.29066 -77.45465 6353 ft 283 kts 183°
2026-04-25 01:10 39.27128 -77.45492 5955 ft 272 kts 183°
2026-04-25 01:10 39.25273 -77.45518 5617 ft 261 kts 183°
2026-04-25 01:11 39.23471 -77.45544 5318 ft 258 kts 183°
2026-04-25 01:11 39.21641 -77.45574 5013 ft 268 kts 183°
2026-04-25 01:11 39.19766 -77.45602 4649 ft 270 kts 182°
2026-04-25 01:11 39.17882 -77.45629 4287 ft 271 kts 182°
2026-04-25 01:12 39.16006 -77.45656 3920 ft 265 kts 182°
2026-04-25 01:12 39.14210 -77.45681 3562 ft 251 kts 181°
2026-04-25 01:12 39.12516 -77.45705 3249 ft 237 kts 182°
2026-04-25 01:12 39.10908 -77.45728 2951 ft 228 kts 183°
2026-04-25 01:13 39.09340 -77.45753 2684 ft 228 kts 182°
2026-04-25 01:13 39.07801 -77.45776 2412 ft 212 kts 182°
2026-04-25 01:13 39.06394 -77.45796 2120 ft 193 kts 181°
2026-04-25 01:13 39.05106 -77.45816 1876 ft 177 kts 180°
2026-04-25 01:14 39.03905 -77.45833 1646 ft 166 kts 179°
2026-04-25 01:14 39.02785 -77.45849 1422 ft 155 kts 179°
2026-04-25 01:14 39.01719 -77.45865 1218 ft 154 kts 179°
2026-04-25 01:14 39.00647 -77.45881 1023 ft 148 kts 180°
2026-04-25 01:15 38.99666 -77.45901 834 ft 135 kts 181°
2026-04-25 01:15 38.98731 -77.45919 678 ft 137 kts 179°
2026-04-25 01:15 38.97774 -77.45923 476 ft 139 kts 181°
2026-04-25 01:15 38.96820 -77.45936 325 ft 134 kts 180°
2026-04-25 01:16 38.95990 -77.45949 306 ft 103 kts 180°
2026-04-25 01:16 38.95443 -77.45957 308 ft 60 kts 180°
2026-04-25 01:16 38.95091 -77.45951 305 ft 33 kts 171°
2026-04-25 01:16 38.94906 -77.45846 307 ft 21 kts 149°
2026-04-25 01:17 38.94836 -77.45793 307 ft 7 kts 150°
2026-04-25 01:17 38.94811 -77.45775 306 ft 2 kts 151°
2026-04-25 01:17 38.94798 -77.45766 307 ft 2 kts 153°
2026-04-25 01:17 38.94710 -77.45731 307 ft 14 kts 162°
2026-04-25 01:18 38.94665 -77.45626 306 ft 14 kts 96°
2026-04-25 01:18 38.94664 -77.45498 305 ft 14 kts 90°
2026-04-25 01:18 38.94663 -77.45371 305 ft 14 kts 90°
2026-04-25 01:18 38.94662 -77.45241 305 ft 17 kts 91°
2026-04-25 01:19 38.94661 -77.45053 305 ft 20 kts 91°
2026-04-25 01:19 38.94640 -77.44940 306 ft 4 kts 178°
2026-04-25 01:19 38.94613 -77.44947 306 ft 4 kts 188°
2026-04-25 01:19 38.94592 -77.44951 306 ft 0 kts 188°
2026-04-25 01:20 38.94588 -77.44951 306 ft 1 kts 187°
2026-04-25 01:20 38.94585 -77.44952 306 ft 0 kts 188°